Flag for Bosnia-Herzegovina Weather past 2 weeks in Sarajevo, Bosnia-Herzegovina

Now
93 °F

Scattered clouds.


Feels Like: 92 °F
Forecast: 65 / 88 °F
Wind: 2 mph from North

Location: Sarajevo / Butmir

Current Time: Jul 29, 2015 at 3:52:43 PM

Latest Report: Jul 29, 2015 at 3:30 PM


Visibility: N/A

Pressure: 29.83 "Hg (28.13 "Hg at 526m altitude)

Humidity: 30%

Dew point: 57 °F

Location of SarajevoLocation

Historic Weather in Sarajevo — Graph

°F

Sarajevo temperature yesterday

Maximum temperature yesterday: 91 °F (at 5:30 PM)
Minimum temperature yesterday: 66 °F (at 5:30 AM)
Average temperature yesterday: 78 °F

Past Weeks' High & Low Weather Summary

 TemperatureHumidityPressure
High99 °F (Jul 19, 4:00 PM)100% (Jul 18, 12:00 AM)30.21 "Hg (Jul 18, 12:00 AM)
Low57 °F (Jul 15, 4:00 AM)19% (Jul 22, 5:00 PM)29.74 "Hg (Jul 27, 3:00 PM)
Average77 °F60%30.00 "Hg
* Reported Jul 14 3:00 PM — Jul 29 3:00 PM, Sarajevo, Weather by CustomWeather, © 2015

Note: Actual official high and low records may vary slightly from our data, if they occured in-between our weather recording intervals... More about our weather records

Advertising

Sarajevo weather history for previous 24 hours

 ConditionsComfort  
Time TempWeatherWind HumidityBarometerVisibility
3:00 PM
Wed, Jul 29
91 °FScattered clouds.6 mph32%29.83 "HgN/A
2:30 PM93 °FScattered clouds.5 mph32%29.83 "HgN/A
2:00 PM90 °FScattered clouds.3 mph33%29.83 "HgN/A
1:30 PM88 °FScattered clouds.6 mph33%29.83 "HgN/A
1:00 PM88 °FScattered clouds.3 mph35%29.83 "HgN/A
12:30 PM88 °FScattered clouds.2 mph35%29.86 "HgN/A
12:00 PM86 °FPassing clouds.5 mph38%29.86 "HgN/A
11:30 AM84 °FPassing clouds.2 mph40%29.86 "HgN/A
11:00 AM82 °FPassing clouds.2 mph42%29.86 "HgN/A
10:30 AM81 °FPassing clouds.2 mph48%29.89 "HgN/A
10:00 AM79 °FPassing clouds.2 mph51%29.89 "HgN/A
9:30 AM75 °FPassing clouds.1 mph57%29.89 "HgN/A
9:00 AM72 °FSunny.1 mph65%29.89 "Hg10 mi
8:30 AM70 °FSunny.No wind69%29.89 "Hg10 mi
8:00 AM66 °FSunny.1 mph78%29.89 "Hg10 mi
7:30 AM64 °FSunny.1 mph83%29.89 "Hg10 mi
7:00 AM63 °FSunny.1 mph88%29.89 "Hg10 mi
6:30 AM61 °FClear.No wind94%29.89 "Hg10 mi
6:00 AM61 °FClear.1 mph88%29.89 "Hg10 mi
5:00 AM61 °FClear.1 mph88%29.89 "Hg10 mi
4:00 AM63 °FClear.1 mph83%29.89 "Hg10 mi
3:00 AM64 °FClear.1 mph83%29.89 "Hg10 mi
2:00 AM66 °FClear.1 mph78%29.89 "Hg10 mi
1:00 AM66 °FClear.2 mph78%29.89 "Hg10 mi
12:00 AM68 °FClear.2 mph73%29.89 "Hg10 mi
11:00 PM
Tue, Jul 28
72 °FClear.1 mph65%29.89 "Hg10 mi
10:30 PM73 °FPassing clouds.1 mph61%29.86 "HgN/A
10:00 PM77 °FPassing clouds.2 mph54%29.86 "HgN/A
9:30 PM79 °FPassing clouds.2 mph51%29.83 "HgN/A
9:00 PM79 °FPassing clouds.2 mph54%29.83 "HgN/A
8:30 PM79 °FPassing clouds.2 mph54%29.80 "HgN/A
8:00 PM82 °FPassing clouds.5 mph48%29.80 "HgN/A
7:30 PM86 °FPassing clouds.3 mph43%29.80 "HgN/A
7:00 PM88 °FPassing clouds.2 mph38%29.80 "HgN/A
6:30 PM88 °FPassing clouds.3 mph35%29.80 "HgN/A
6:00 PM90 °FPassing clouds.3 mph33%29.80 "HgN/A
5:30 PM91 °FPassing clouds.5 mph30%29.80 "HgN/A
5:00 PM90 °FPassing clouds.3 mph31%29.80 "HgN/A
4:30 PM88 °FPassing clouds.3 mph33%29.80 "HgN/A
4:00 PM88 °FPassing clouds.3 mph33%29.80 "HgN/A
3:30 PM88 °FScattered clouds.3 mph35%29.83 "HgN/A
3:00 PM88 °FScattered clouds.2 mph35%29.83 "HgN/A
Weather by CustomWeather, © 2015

See weather overviewHow to use our weather pages